Location: Newark
(45.8944°N, 12.5886°E)
Time: 22:11:39
(UTC+00:00)

Oscar 11 - Visible Passes

Search period start: 02 April 2020 00:00
Search period end: 12 April 2020 00:00
Orbit: 612 x 626 km, 97.6° (Epoch: 02 April)

Date Brightness Start Highest point End Pass type
(mag) Time Alt. Az. Time Alt. Az. Time Alt. Az.
04 Apr 10.0 18:12:38 10° SW 18:15:43 19° W 18:18:49 10° NW visible
05 Apr 10.4 18:31:00 10° WSW 18:32:58 13° W 18:34:55 10° WNW visible
10 Apr 10.1 18:19:22 10° SW 18:22:03 16° W 18:24:46 10° NW visible
11 Apr 10.6 18:38:20 10° W 18:39:19 11° W 18:40:19 10° WNW visible
